Home   Weather   Mülheim / Ruhr   Past weeks

Flag for Germany Past Weather in Mülheim / Ruhr, North Rhine-Westphalia, Germany — Yesterday and Last 2 Weeks

Now
63 °F

Partly sunny.


Feels Like: 63 °F
Forecast: 51 / 61 °F
Wind: 7 mph from Southwest

Location: Duesseldorf

Current Time: Oct 1, 2016 at 4:02:17 PM

Latest Report: Oct 1, 2016 at 3:20 PM


Visibility: N/A

Pressure: 29.77 "Hg

Humidity: 73%

Dew Point: 54 °F

Location of Mülheim / RuhrLocation

Past Weather in Mülheim / Ruhr — Graph

°F

Mülheim / Ruhr Temperature Yesterday

Maximum temperature yesterday: 64 °F (at 3:20 PM)
Minimum temperature yesterday: 55 °F (at 7:50 AM)
Average temperature yesterday: 59 °F

High & Low Weather Summary for the Past Weeks

 TemperatureHumidityPressure
High81 °F (Sep 25, 3:20 PM)100% (Sep 18, 12:20 AM)30.33 "Hg (Sep 18, 12:20 AM)
Low45 °F (Sep 27, 7:20 AM)28% (Sep 25, 4:50 PM)29.77 "Hg (Oct 1, 1:20 PM)
Average61 °F72%30.10 "Hg
* Reported Sep 16 2:20 PM — Oct 1 2:50 PM, Mülheim / Ruhr, Weather by CustomWeather, © 2016

Note: Actual official high and low records may vary slightly from our data, if they occured in-between our weather recording intervals... More about our weather records

Advertising

Mülheim / Ruhr Weather History for the Previous 24 Hours

Scroll right to see more
 ConditionsComfort  
Time TempWeatherWind HumidityBarometerVisibility
2:50 PM
Sat, Oct 1
63 °FPartly sunny.7 mph73%29.77 "HgN/A
2:20 PM63 °FPartly sunny.7 mph68%29.77 "HgN/A
1:50 PM61 °FBroken clouds.6 mph77%29.77 "HgN/A
1:20 PM61 °FPartly sunny.6 mph77%29.77 "HgN/A
12:50 PM61 °FBroken clouds.6 mph72%29.80 "HgN/A
12:20 PM59 °FPartly sunny.6 mph77%29.80 "HgN/A
11:50 AM59 °FPartly sunny.7 mph77%29.80 "HgN/A
11:20 AM57 °FPartly sunny.8 mph82%29.80 "HgN/A
10:50 AM57 °FBroken clouds.7 mph82%29.80 "HgN/A
10:20 AM55 °FPartly sunny.10 mph88%29.80 "HgN/A
9:50 AM55 °FLight rain. Overcast.9 mph88%29.80 "HgN/A
9:20 AM55 °FLight rain. Overcast.7 mph88%29.80 "HgN/A
8:50 AM55 °FPartly sunny.7 mph88%29.80 "HgN/A
8:20 AM55 °FBroken clouds.8 mph88%29.83 "HgN/A
7:50 AM55 °FBroken clouds.7 mph88%29.83 "HgN/A
7:20 AM55 °FPassing clouds.9 mph88%29.83 "HgN/A
6:50 AM57 °FPartly cloudy.7 mph88%29.83 "HgN/A
6:20 AM57 °FPassing clouds.6 mph88%29.83 "HgN/A
5:50 AM55 °FLight rain. Passing clouds.9 mph94%29.83 "HgN/A
5:20 AM55 °FLight rain. Passing clouds.9 mph94%29.83 "HgN/A
4:50 AM55 °FLight rain. Passing clouds.8 mph94%29.83 "HgN/A
4:20 AM55 °FLight rain. Clear.7 mph94%29.86 "HgN/A
3:50 AM55 °FLight rain. Passing clouds.8 mph94%29.86 "HgN/A
3:20 AM57 °FLight rain. Clear.3 mph82%29.86 "HgN/A
2:50 AM57 °FLight rain. Clear.5 mph82%29.89 "HgN/A
2:20 AM57 °FLight rain. Passing clouds.6 mph82%29.89 "HgN/A
1:50 AM57 °FLight rain. Passing clouds.8 mph82%29.89 "HgN/A
1:20 AM57 °FLight rain. Passing clouds.8 mph77%29.89 "HgN/A
12:50 AM57 °FClear.7 mph77%29.92 "Hg10 mi
12:20 AM57 °FClear.9 mph77%29.92 "Hg10 mi
11:50 PM
Fri, Sep 30
57 °FClear.10 mph72%29.92 "Hg10 mi
11:20 PM55 °FPassing clouds.3 mph82%29.95 "HgN/A
10:50 PM55 °FPassing clouds.3 mph82%29.95 "HgN/A
10:20 PM55 °FPassing clouds.5 mph82%29.95 "HgN/A
9:50 PM55 °FClear.2 mph77%29.95 "Hg10 mi
9:20 PM55 °FClear.6 mph77%29.95 "Hg10 mi
8:50 PM57 °FClear.7 mph72%29.95 "Hg10 mi
8:20 PM57 °FClear.7 mph67%29.95 "Hg10 mi
7:50 PM57 °FClear.6 mph67%29.95 "Hg10 mi
7:20 PM57 °FClear.6 mph67%29.95 "Hg10 mi
6:50 PM63 °FPartly sunny.7 mph52%29.95 "HgN/A
6:20 PM64 °FPartly sunny.9 mph49%29.95 "HgN/A
5:50 PM64 °FPartly sunny.10 mph52%29.95 "HgN/A
5:20 PM64 °FScattered clouds.12 mph52%29.95 "HgN/A
4:50 PM64 °FScattered clouds.10 mph49%29.95 "HgN/A
4:20 PM64 °FScattered clouds.13 mph52%29.95 "HgN/A
Weather by CustomWeather, © 2016

See weather overviewHow to use our weather pages